EW5962 Weather Reports


Display with metric or nautical units.
time (UTC)temp
F
wind
direction
speed
MPH
gust
MPH
rain 1hr
in
rain 24hr
in
rain mn
in
humidity
%
barometer
mb
20260505003002 67 198 0.0 0.0 0.00 0.00 0.00 49 1012.5
20260505002514 67 198 0.0 0.0 0.00 0.00 0.00 47 1012.5
20260505002104 68 198 0.0 0.0 0.00 0.00 0.00 47 1012.5
20260505001503 68 198 0.0 0.0 0.00 0.00 0.00 47 1012.4
20260505001017 69 198 0.0 0.0 0.00 0.00 0.00 46 1012.3
20260505000603 69 198 0.0 0.0 0.00 0.00 0.00 46 1012.4
20260505000007 69 198 0.0 0.0 0.00 0.00 0.00 44 1012.3
20260504235510 70 198 0.0 0.0 0.00 0.00 0.00 45 1012.2
20260504235104 70 198 0.0 0.0 0.00 0.00 0.00 45 1012.1
20260504234505 71 198 0.0 0.0 0.00 0.00 0.00 43 1012.1
20260504234009 71 198 0.0 0.0 0.00 0.00 0.00 43 1012.0
20260504233603 71 198 0.0 3.0 0.00 0.00 0.00 41 1012.0
20260504233004 72 184 0.0 3.0 0.00 0.00 0.00 42 1012.0
20260504232510 72 191 0.0 0.0 0.00 0.00 0.00 41 1011.9
20260504232107 73 181 0.0 2.0 0.00 0.00 0.00 40 1011.9
20260504231503 73 181 0.0 2.0 0.00 0.00 0.00 38 1011.9
20260504231009 73 181 0.0 2.0 0.00 0.00 0.00 40 1011.9
20260504230604 73 183 0.0 2.0 0.00 0.00 0.00 37 1012.0
20260504230003 74 192 0.0 3.0 0.00 0.00 0.00 40 1012.0
20260504225509 74 220 0.0 3.0 0.00 0.00 0.00 39 1011.9
20260504225103 74 174 0.0 0.0 0.00 0.00 0.00 37 1011.9
20260504224503 75 169 0.0 4.0 0.00 0.00 0.00 38 1012.0
20260504224014 75 168 0.0 4.0 0.00 0.00 0.00 35 1012.0
20260504223604 75 178 0.0 6.0 0.00 0.00 0.00 34 1012.0
20260504223003 75 214 0.0 6.0 0.00 0.00 0.00 37 1012.0
20260504222510 75 175 0.0 1.0 0.00 0.00 0.00 35 1012.1
20260504222103 75 186 0.0 1.0 0.00 0.00 0.00 35 1012.0
20260504221504 75 165 0.0 4.0 0.00 0.00 0.00 34 1012.0
20260504221010 76 173 0.0 4.0 0.00 0.00 0.00 35 1012.0
20260504220603 76 217 0.0 0.0 0.00 0.00 0.00 37 1012.0
20260504220003 76 201 0.0 4.0 0.00 0.00 0.00 35 1012.0
20260504215510 76 203 0.0 3.0 0.00 0.00 0.00 33 1012.0
20260504215102 76 176 0.0 1.0 0.00 0.00 0.00 33 1012.0
20260504214503 76 150 0.0 3.0 0.00 0.00 0.00 33 1012.0
20260504214011 76 231 0.0 3.0 0.00 0.00 0.00 33 1012.0
20260504213604 76 231 0.0 4.0 0.00 0.00 0.00 32 1012.0
20260504213003 77 163 0.0 4.0 0.00 0.00 0.00 33 1012.0
20260504212509 77 180 0.0 4.0 0.00 0.00 0.00 34 1012.0
20260504212104 77 179 0.0 4.0 0.00 0.00 0.00 33 1012.0
20260504211503 78 205 0.0 2.0 0.00 0.00 0.00 31 1012.1
20260504211009 78 209 0.0 2.0 0.00 0.00 0.00 31 1012.1
20260504210606 79 188 0.0 1.0 0.00 0.00 0.00 31 1012.1
20260504210004 80 200 0.0 0.0 0.00 0.00 0.00 30 1012.0
20260504205509 80 211 0.0 2.0 0.00 0.00 0.00 31 1012.2
20260504205104 80 195 0.0 4.0 0.00 0.00 0.00 32 1012.3
20260504204504 80 177 0.0 5.0 0.00 0.00 0.00 31 1012.3
20260504204009 81 207 0.0 5.0 0.00 0.00 0.00 31 1012.3
20260504203605 81 172 0.0 0.0 0.00 0.00 0.00 32 1012.4
20260504203006 81 194 0.0 0.0 0.00 0.00 0.00 31 1012.4
20260504202513 81 184 0.0 1.0 0.00 0.00 0.00 31 1012.5
20260504202104 81 232 0.0 6.0 0.00 0.00 0.00 32 1012.5
20260504201505 80 146 0.0 7.0 0.00 0.00 0.00 32 1012.5
20260504201009 80 195 0.0 7.0 0.00 0.00 0.00 31 1012.7
20260504200603 81 286 1.0 6.0 0.00 0.00 0.00 31 1012.7
20260504200004 81 234 0.0 5.0 0.00 0.00 0.00 32 1012.8
20260504195509 81 196 0.0 9.0 0.00 0.00 0.00 33 1012.7
20260504195104 81 26 1.0 9.0 0.00 0.00 0.00 33 1012.8
20260504194504 82 216 0.0 9.0 0.00 0.00 0.00 33 1012.9
20260504194009 81 159 1.0 9.0 0.00 0.00 0.00 32 1012.9
20260504193603 81 200 0.0 5.0 0.00 0.00 0.00 33 1012.9
20260504193003 81 169 0.0 5.0 0.00 0.00 0.00 35 1013.0
20260504192509 81 181 0.0 5.0 0.00 0.00 0.00 32 1013.1
20260504192103 81 180 0.0 0.0 0.00 0.00 0.00 35 1013.2
20260504191503 80 15 0.0 0.0 0.00 0.00 0.00 34 1013.3
20260504191009 80 198 0.0 1.0 0.00 0.00 0.00 36 1013.3
20260504190605 79 205 0.0 5.0 0.00 0.00 0.00 34 1013.3
20260504190004 79 191 1.0 5.0 0.00 0.00 0.00 33 1013.5
20260504185509 79 112 0.0 5.0 0.00 0.00 0.00 36 1013.5
20260504185104 79 181 0.0 5.0 0.00 0.00 0.00 34 1013.6
20260504184504 78 171 0.0 4.0 0.00 0.00 0.00 34 1013.6
20260504184009 78 147 0.0 5.0 0.00 0.00 0.00 35 1013.6
20260504183604 78 169 0.0 5.0 0.00 0.00 0.00 35 1013.7
20260504183004 78 203 0.0 0.0 0.00 0.00 0.00 33 1013.7
20260504182509 78 105 0.0 0.0 0.00 0.00 0.00 36 1013.8
20260504182103 78 20 0.0 0.0 0.00 0.00 0.00 34 1013.8
20260504181503 78 219 0.0 2.0 0.00 0.00 0.00 34 1013.8
20260504181010 77 179 0.0 6.0 0.00 0.00 0.00 36 1013.9
20260504180604 77 183 0.0 6.0 0.00 0.00 0.00 36 1014.0
20260504180007 78 181 0.0 5.0 0.00 0.00 0.00 34 1014.1
20260504175512 77 167 0.0 5.0 0.00 0.00 0.00 36 1014.0
20260504175103 77 160 0.0 1.0 0.00 0.00 0.00 35 1014.0
20260504174504 77 179 0.0 5.0 0.00 0.00 0.00 36 1014.1
20260504174009 78 169 0.0 3.0 0.00 0.00 0.00 35 1014.2
20260504173606 78 157 0.0 3.0 0.00 0.00 0.00 36 1014.3
20260504173003 77 124 0.0 4.0 0.00 0.00 0.00 34 1014.3
20260504172508 77 166 0.0 4.0 0.00 0.00 0.00 35 1014.4
20260504172103 77 254 0.0 0.0 0.00 0.00 0.00 35 1014.4
20260504171503 76 143 0.0 1.0 0.00 0.00 0.00 37 1014.5
20260504171009 76 174 0.0 6.0 0.00 0.00 0.00 37 1014.5
20260504170602 75 150 0.0 6.0 0.00 0.00 0.00 37 1014.7
20260504151010 69 184 0.0 0.0 0.00 0.00 0.00 43 1016.2
20260504150604 68 179 0.0 4.0 0.00 0.00 0.00 44 1016.2
20260504141008 60 206 0.0 1.0 0.00 0.00 0.00 65 1016.2
20260504140604 59 206 0.0 1.0 0.00 0.00 0.00 65 1016.2
20260504130603 49 181 0.0 1.0 0.00 0.00 0.00 87 1016.2
20260504110605 38 169 0.0 0.0 0.00 0.00 0.00 93 1016.3
20260504100603 39 169 0.0 0.0 0.00 0.00 0.00 92 1016.2
20260504081503 40 169 0.0 0.0 0.00 0.00 0.00 90 1016.1
20260504081010 41 169 0.0 0.0 0.00 0.00 0.00 90 1016.1
20260504080603 41 169 0.0 0.0 0.00 0.00 0.00 90 1016.0
20260504050602 43 169 0.0 0.0 0.00 0.00 0.00 83 1016.2
20260504050002 43 169 0.0 0.0 0.00 0.00 0.00 83 1016.2
20260504045511 43 169 0.0 0.0 0.00 0.00 0.00 83 1016.2
20260504045102 43 169 0.0 0.0 0.00 0.00 0.00 82 1016.1
20260504044502 43 169 0.0 0.0 0.00 0.00 0.00 82 1016.1
20260504044010 43 169 0.0 0.0 0.00 0.00 0.00 82 1016.0
20260504043604 43 169 0.0 0.0 0.00 0.00 0.00 82 1016.0
20260504043110 43 169 0.0 0.0 0.00 0.00 0.00 82 1016.1
20260504042509 43 169 0.0 0.0 0.00 0.00 0.00 82 1016.1
20260504042102 43 169 0.0 0.0 0.00 0.00 0.00 82 1016.1
20260504041503 44 169 0.0 0.0 0.00 0.00 0.00 82 1016.1
20260504041003 44 169 0.0 0.0 0.00 0.00 0.00 81 1016.1
20260504040605 44 169 0.0 0.0 0.00 0.00 0.00 81 1016.1
20260504040003 44 169 0.0 0.0 0.00 0.00 0.00 81 1016.2
20260504035512 44 169 0.0 0.0 0.00 0.00 0.00 81 1016.1
20260504035103 44 169 0.0 0.0 0.00 0.00 0.00 80 1016.2
20260504034502 44 169 0.0 0.0 0.00 0.00 0.00 80 1016.2
20260504034011 44 169 0.0 0.0 0.00 0.00 0.00 80 1016.3
20260504033602 45 169 0.0 0.0 0.00 0.00 0.00 79 1016.3
20260504033006 45 169 0.0 0.0 0.00 0.00 0.00 79 1016.2
20260504032513 45 169 0.0 0.0 0.00 0.00 0.00 78 1016.2
20260504032103 45 169 0.0 0.0 0.00 0.00 0.00 78 1016.3
20260504031505 45 169 0.0 0.0 0.00 0.00 0.00 78 1016.3
20260504031009 45 169 0.0 0.0 0.00 0.00 0.00 78 1016.4
20260504030605 45 169 0.0 0.0 0.00 0.00 0.00 77 1016.4
20260504030002 45 169 0.0 0.0 0.00 0.00 0.00 77 1016.3
20260504025510 46 169 0.0 0.0 0.00 0.00 0.00 77 1016.2
20260504025104 46 169 0.0 0.0 0.00 0.00 0.00 76 1016.2
20260504024503 46 169 0.0 0.0 0.00 0.00 0.00 76 1016.2
20260504024008 46 169 0.0 0.0 0.00 0.00 0.00 75 1016.1
20260504023604 46 169 0.0 0.0 0.00 0.00 0.00 75 1016.0
20260504023003 46 169 0.0 0.0 0.00 0.00 0.00 74 1016.0
20260504022509 47 169 0.0 0.0 0.00 0.00 0.00 74 1016.0
20260504022103 47 169 0.0 0.0 0.00 0.00 0.00 74 1016.0
20260504021502 47 169 0.0 0.0 0.00 0.00 0.00 73 1015.8
20260504021009 47 169 0.0 0.0 0.00 0.00 0.00 73 1015.7
20260504020603 47 169 0.0 0.0 0.00 0.00 0.00 72 1015.7
20260504020006 48 169 0.0 0.0 0.00 0.00 0.00 72 1015.6
20260504015509 48 169 0.0 0.0 0.00 0.00 0.00 71 1015.6
20260504015103 48 169 0.0 0.0 0.00 0.00 0.00 70 1015.5
20260504014503 49 169 0.0 0.0 0.00 0.00 0.00 70 1015.5
20260504014009 49 169 0.0 0.0 0.00 0.00 0.00 69 1015.5
20260504013603 49 169 0.0 0.0 0.00 0.00 0.00 68 1015.5
20260504013005 50 169 0.0 0.0 0.00 0.00 0.00 68 1015.4
20260504012510 50 169 0.0 0.0 0.00 0.00 0.00 67 1015.4
20260504012102 50 169 0.0 0.0 0.00 0.00 0.00 66 1015.4
20260504011502 51 169 0.0 0.0 0.00 0.00 0.00 66 1015.4
20260504011008 51 169 0.0 0.0 0.00 0.00 0.00 65 1015.3
20260504010605 51 169 0.0 0.0 0.00 0.00 0.00 64 1015.3
20260504010002 52 169 0.0 0.0 0.00 0.00 0.00 63 1015.2
20260504005508 52 169 0.0 0.0 0.00 0.00 0.00 62 1015.1
20260504005105 53 169 0.0 0.0 0.00 0.00 0.00 61 1015.2
20260504004502 53 169 0.0 0.0 0.00 0.00 0.00 59 1015.1
20260504004009 54 169 0.0 0.0 0.00 0.00 0.00 58 1015.0
20260504003604 54 169 0.0 0.0 0.00 0.00 0.00 57 1015.1